St. Charles, IL

6:58 AM CDT on September 25, 2017 (GMT -0500)
Saint Charles County Smartt

Weather History for KSET - August, 2014

Change the Weather History Date:

Thursday, August 14, 2014

  Actual Average (KSTL) Record (KSTL)
Temperature  
Mean Temperature 68 °F -  
Max Temperature 84 °F 87 °F 103 °F (2007)
Min Temperature 55 °F 67 °F 55 °F (1933)
Cooling Degree Days 4    
Growing Degree Days 18 (Base 50)    
Moisture  
Dew Point 59 °F    
Average Humidity 86    
Maximum Humidity 100    
Minimum Humidity 47    
Precipitation  
Precipitation 0.00 in - - ()
Sea Level Pressure  
Sea Level Pressure 30.06 in    
Wind  
Wind Speed 1 mph (West)    
Max Wind Speed 7 mph    
Max Gust Speed -    
Visibility 6 miles    
Events      
Averages and records for this station are not official NWS values.
T = Trace of Precipitation, MM = Missing Value Source: NWS Daily Summary

Daily Weather History Graph

Daily Weather History Graph

Search for Another Location

Airport or City:

Trip Planner

Search our weather history database for the weather conditions in past years. The results will help you decide how hot, cold, wet, or windy it might be!

Date:

Astronomy

Aug. 14, 2014 Rise Set
Actual Time 6:14 AM CDT 7:57 PM CDT
Civil Twilight 5:45 AM CDT 8:26 PM CDT
Nautical Twilight 5:11 AM CDT 9:00 PM CDT
Astronomical Twilight 4:34 AM CDT 9:37 PM CDT
Moon 10:24 PM CDT (8/14) 10:48 AM CDT (8/14)
Length of Visible Light 14h 40m
Length of Day
13h 43m
Waning Gibbous, 79% of the Moon is Illuminated
Aug 14
Waning Gibbous
Aug 17
Last Quarter
Aug 25
New
Sep 2
First Quarter
Sep 8
Full

Hourly Weather History & Observations

Time (CDT) Temp. Heat Index Dew Point Humidity Pressure Visibility Wind Dir Wind Speed Gust Speed Precip Events Conditions
12:54 AM 62.1 °F - 60.1 °F 93% 30.06 in 10.0 mi Calm Calm - N/A   Clear
1:54 AM 57.9 °F - 57.0 °F 97% 30.05 in 10.0 mi Calm Calm - N/A   Clear
2:10 AM 59.0 °F - 57.0 °F 93% 30.06 in 10.0 mi Calm Calm - N/A   Partly Cloudy
2:24 AM 59.0 °F - 57.9 °F 96% 30.07 in 2.5 mi Calm Calm - N/A   Mostly Cloudy
2:32 AM 57.9 °F - 57.9 °F 100% 30.07 in 1.0 mi WSW 3.5 mph - N/A   Mist
2:41 AM 59.0 °F - 57.9 °F 96% 30.07 in 3.0 mi Calm Calm - N/A   Mostly Cloudy
2:54 AM 59.0 °F - 57.0 °F 93% 30.06 in 8.0 mi Calm Calm - N/A   Mostly Cloudy
3:06 AM 57.9 °F - 57.0 °F 97% 30.07 in 10.0 mi Calm Calm - N/A   Scattered Clouds
3:17 AM 57.0 °F - 57.0 °F 100% 30.07 in 2.5 mi Calm Calm - N/A   Mostly Cloudy
3:24 AM 57.0 °F - 57.0 °F 100% 30.07 in 0.8 mi Calm Calm - N/A   Mist
3:37 AM 57.9 °F - 57.0 °F 97% 30.07 in 2.0 mi Calm Calm - N/A   Overcast
3:45 AM 57.9 °F - 57.0 °F 97% 30.07 in 3.0 mi Calm Calm - N/A   Overcast
3:54 AM 57.0 °F - 55.9 °F 96% 30.06 in 5.0 mi Calm Calm - N/A   Mostly Cloudy
4:04 AM 55.9 °F - 55.0 °F 97% 30.08 in 2.0 mi Calm Calm - N/A   Scattered Clouds
4:06 AM 55.9 °F - 55.9 °F 100% 30.08 in 1.0 mi Calm Calm - N/A   Mist
4:14 AM 57.0 °F - 55.9 °F 96% 30.08 in 0.8 mi Calm Calm - N/A   Mist
4:18 AM 57.0 °F - 55.9 °F 96% 30.08 in 2.5 mi Calm Calm - N/A   Mostly Cloudy
4:25 AM 57.0 °F - 57.0 °F 100% 30.07 in 6.0 mi SSW 3.5 mph - N/A   Mostly Cloudy
4:54 AM 57.0 °F - 55.9 °F 96% 30.06 in 3.0 mi Calm Calm - N/A   Mostly Cloudy
5:01 AM 57.9 °F - 55.9 °F 93% 30.08 in 10.0 mi Calm Calm - N/A   Scattered Clouds
5:28 AM 57.9 °F - 55.9 °F 93% 30.07 in 5.0 mi Calm Calm - N/A   Mostly Cloudy
5:44 AM 57.0 °F - 55.9 °F 96% 30.08 in 0.8 mi Calm Calm - N/A   Mist
5:54 AM 55.9 °F - 55.9 °F 100% 30.07 in 0.8 mi Calm Calm - N/A   Mist
6:09 AM 55.9 °F - 55.0 °F 97% 30.08 in 0.8 mi Calm Calm - N/A   Mist
6:20 AM 55.9 °F - 55.0 °F 97% 30.09 in 2.5 mi Calm Calm - N/A   Overcast
6:27 AM 55.9 °F - 55.0 °F 97% 30.08 in 10.0 mi Calm Calm - N/A   Mostly Cloudy
6:42 AM 55.9 °F - 55.9 °F 100% 30.09 in 1.5 mi Calm Calm - N/A   Mostly Cloudy
6:51 AM 57.2 °F - 57.2 °F 100% 30.09 in 0.8 mi Calm Calm - N/A   Mist
6:54 AM 57.9 °F - 57.0 °F 97% 30.08 in 1.2 mi Calm Calm - N/A   Mostly Cloudy
6:56 AM 57.9 °F - 57.0 °F 97% 30.09 in 3.0 mi Calm Calm - N/A   Overcast
7:17 AM 59.0 °F - 59.0 °F 100% 30.09 in 1.8 mi Calm Calm - N/A   Overcast
7:31 AM 61.0 °F - 60.1 °F 97% 30.09 in 3.0 mi Calm Calm - N/A   Mostly Cloudy
7:45 AM 63.0 °F - 61.0 °F 93% 30.10 in 10.0 mi Calm Calm - N/A   Scattered Clouds
7:54 AM 64.0 °F - 62.1 °F 93% 30.09 in 10.0 mi Calm Calm - N/A   Partly Cloudy
8:54 AM 69.1 °F - 63.0 °F 81% 30.09 in 10.0 mi WSW 3.5 mph - N/A   Clear
9:54 AM 73.9 °F - 60.1 °F 62% 30.09 in 10.0 mi WSW 4.6 mph - N/A   Clear
10:54 AM 77.0 °F - 60.1 °F 56% 30.08 in 10.0 mi West 4.6 mph - N/A   Clear
11:54 AM 79.0 °F - 59.0 °F 50% 30.07 in 10.0 mi NNW 4.6 mph - N/A   Clear
12:54 PM 81.0 °F 81.6 °F 60.1 °F 49% 30.06 in 10.0 mi WSW 6.9 mph - N/A   Clear
1:54 PM 82.0 °F 82.4 °F 60.1 °F 47% 30.04 in 10.0 mi WSW 6.9 mph - N/A   Clear
2:54 PM 82.0 °F 82.7 °F 61.0 °F 49% 30.04 in 10.0 mi Variable 6.9 mph - N/A   Scattered Clouds
3:54 PM 82.9 °F 83.7 °F 62.1 °F 49% 30.03 in 10.0 mi Variable 3.5 mph - N/A   Partly Cloudy
4:54 PM 82.9 °F 83.3 °F 61.0 °F 47% 30.01 in 10.0 mi North 4.6 mph - N/A   Scattered Clouds
5:54 PM 81.0 °F 81.7 °F 61.0 °F 50% 30.00 in 10.0 mi Calm Calm - N/A   Clear
6:54 PM 80.1 °F 81.2 °F 62.1 °F 54% 29.99 in 10.0 mi Calm Calm - N/A   Clear
7:54 PM 75.9 °F - 69.1 °F 79% 29.99 in 10.0 mi Calm Calm - N/A   Clear
8:54 PM 72.0 °F - 66.9 °F 84% 30.00 in 10.0 mi Calm Calm - N/A   Clear
9:54 PM 70.0 °F - 66.9 °F 90% 30.01 in 10.0 mi Calm Calm - N/A   Clear
10:54 PM 68.0 °F - 66.0 °F 93% 30.01 in 10.0 mi Calm Calm - N/A   Clear
11:54 PM 66.0 °F - 64.0 °F 93% 30.01 in 10.0 mi Calm Calm - N/A   Clear